Albuquerque International Sunport Airport
KABQ : now visible

Airfield :











YOU CAN JOIN US ON...

 
LOGIN :

Register | Disclaimer

   EN    FR    IT 

 









Legend :    VFR   Marginal VFR   IFR   Intensive IFR   Very Intensive IFR
Visi :
Ceiling :
>= 8 km
>= 3000ft
5 to 8 km
1000 to 3000 ft
1500m to 5 km
500 to 1000 ft
800 to 1500m
200 to 500 ft
< 800m
< 200 ft
Symbols :   Thunderstorms  Fog  Heavy snow  Heavy precipitations  Wind > 20 kt






- Airport Elevation : 5355 ft
- IATA code : ABQ


KABQ - Albuquerque International Sunport

CURRENT METAR :
  • 291452Z 36005KT 10SM CLR 03/M01 A3037 RMK AO2 SLP279 T00331011 53018

EXPIRED METARs :
  • 291352Z 36006KT 10SM CLR 01/M02 A3035 RMK AO2 SLP276 T00111017
  • 291252Z 03007KT 10SM CLR 01/M02 A3032 RMK AO2 SLP264 T00111017

TAF KABQ
Valid from the 29 at 12:00 until the 30 at 12:00 UTC


291120Z 2912/3012 VRB06KT P6SM SKC
KZAB FIR / North America



MET'MAP, your aeronautical weather chart ! - Copyright ORBIFLY December 2007 - Disclaimer

ORBIFLY MET'MAP TEAM :

Programming & Development : Alexandra Zaïnal
Concept & original design : Baudouin d'Aumeries
Assistance for programming : Marc-Olivier Méhu
Technical & hardware support : Manuel Goepfert

Contact : metmap@orbifly.com




SOURCES & CREDITS :

   NOAA       Earth
Advisory